Location: Bühlhof
(48.7849°N, 8.6361°E)
Time: 23:51:50
(UTC+00:00)

Radarsat Rocket - Pass Details

Date: 19 January 2026
Orbit: 933 x 1491 km, 100.5° (Epoch: 18 February)

Event Time Altitude Azimuth Distance (km) Brightness Sun altitude
Rises 17:53:04 0° 160° (SSE) 3,782 7.0 -17.8°
Reaches altitude 10° 17:55:37 10° 161° (SSE) 2,776 6.3 -18.2°
Maximum altitude 18:01:45 89° 246° (WSW) 960 3.9 -19.2°
Drops below altitude 10° 18:07:36 10° 343° (NNW) 2,654 6.4 -20.1°
Sets 18:10:00 0° 343° (NNW) 3,605 7.1 -20.5°
